Weather History for Scilly, United Kingdom

Change the Weather History Date:

Friday, January 4, 2013

  Actual Average Record
Temperature  
Mean Temperature 51 °F -  
Max Temperature 52 °F 47 °F 53 °F (1999)
Min Temperature 50 °F 45 °F 37 °F (1997)
Degree Days  
Heating Degree Days 14    
Growing Degree Days 1 (Base 50)    
Moisture  
Dew Point 50 °F    
Average Humidity 93    
Maximum Humidity 94    
Minimum Humidity 86    
Precipitation  
Precipitation 0.00 in - - ()
Sea Level Pressure  
Sea Level Pressure 30.65 in    
Wind  
Wind Speed 16 mph ()    
Max Wind Speed 29 mph    
Max Gust Speed -    
Visibility 8.6 miles    
Events      
Averages and records for this station are not official NWS values.
T = Trace of Precipitation, MM = Missing Value Source: Averaged Metar Reports

Daily Weather History Graph

Daily Weather History Graph

Search for Another Location

Airport:

Trip Planner

Search our weather history database for the weather conditions in past years. The results will help you decide how hot, cold, wet, or windy it might be!

Date:

Astronomy

Jan. 04, 2013 Rise Set
Actual Time 8:22 AM GMT 4:37 PM GMT
Civil Twilight 7:44 AM GMT 5:15 PM GMT
Nautical Twilight 7:03 AM GMT 5:56 PM GMT
Astronomical Twilight 6:24 AM GMT 6:35 PM GMT
Moon No Moon Rise 11:14 AM GMT (1/4)
Length of Visible Light 9h 30m
Length of Day
8h 15m
Waning Gibbous, 57% of the Moon is Illuminated
Jan 4
Waning Gibbous
Jan 5
Last Quarter
Jan 11
New
Jan 18
First Quarter
Jan 27
Full

Hourly Weather History & Observations

Time (GMT) Temp. Dew Point Humidity Pressure Visibility Wind Dir Wind Speed Gust Speed Precip Events Conditions
2:50 AM 50 °F 47 °F 86% 30.68 in 28 mi SSW 15.0 mph - -   Overcast
5:50 AM 51 °F 49 °F 89% 30.67 in 19 mi South 10.4 mph - -   Overcast
8:20 AM 51.8 °F 50.0 °F 94% 30.66 in 6.2 mi SSW 17.3 mph - N/A   Scattered Clouds
8:50 AM 51 °F 50 °F 93% 30.67 in 18 mi South 16.1 mph - -   Mostly Cloudy
8:50 AM 51.8 °F 50.0 °F 94% 30.69 in 6.2 mi South 16.1 mph - N/A   Mostly Cloudy
9:20 AM 51.8 °F 50.0 °F 94% 30.69 in 6.2 mi South 17.3 mph - N/A   Mostly Cloudy
9:50 AM 51.8 °F 50.0 °F 94% 30.66 in 6.2 mi South 18.4 mph - N/A   Mostly Cloudy
10:20 AM 51.8 °F 50.0 °F 94% 30.69 in 6.2 mi South 17.3 mph - N/A   Mostly Cloudy
10:50 AM 51.8 °F 50.0 °F 94% 30.69 in 6.2 mi South 19.6 mph - N/A   Mostly Cloudy
11:20 AM 51.8 °F 50.0 °F 94% 30.69 in 6.2 mi South 18.4 mph - N/A   Mostly Cloudy
11:50 AM 52 °F 50 °F 89% 30.66 in 19 mi South 21.9 mph - -   Overcast
11:50 AM 51.8 °F 50.0 °F 94% 30.66 in 6.2 mi South 23.0 mph - N/A   Mostly Cloudy
12:20 PM 51.8 °F 50.0 °F 94% 30.66 in 6.2 mi South 28.8 mph - N/A   Mostly Cloudy
12:50 PM 51.8 °F 50.0 °F 94% 30.66 in 6.2 mi South 21.9 mph - N/A   Mostly Cloudy
1:20 PM 51.8 °F 50.0 °F 94% 30.63 in 6.2 mi South 23.0 mph - N/A   Mostly Cloudy
1:50 PM 51.8 °F 50.0 °F 94% 30.63 in 6.2 mi South 20.7 mph - N/A   Scattered Clouds
2:20 PM 51.8 °F 50.0 °F 94% 30.63 in 6.2 mi South 19.6 mph - N/A   Mostly Cloudy
2:50 PM 52 °F 50 °F 91% 30.63 in 15 mi South 18.4 mph - -   Mostly Cloudy
2:50 PM 51.8 °F 50.0 °F 94% 30.63 in 6.2 mi South 18.4 mph - N/A   Partly Cloudy
3:20 PM 51.8 °F 50.0 °F 94% 30.63 in 6.2 mi South 18.4 mph - N/A   Partly Cloudy
3:50 PM 51.8 °F 50.0 °F 94% 30.63 in 6.2 mi South 19.6 mph - N/A   Mostly Cloudy
4:50 PM 51.8 °F 50.0 °F 94% 30.60 in 6.2 mi South 23.0 mph - N/A   Mostly Cloudy
5:50 PM 52 °F 50 °F 89% 30.61 in 12 mi South 18.4 mph - -   Overcast
8:50 PM 52 °F 50 °F 89% 30.61 in 9 mi SSW 19.6 mph - -   Overcast
11:50 PM 52 °F 50 °F 89% 30.57 in 10 mi SSW 23.0 mph - -   Overcast